Regional Weather Roundup
Issued by NWS

Home | Current Version | Previous Version | Text Only | Print | Product List | Glossary On
Versions: 1 2 3 4 5 6 7 8 9 10 11 12 13 14 15 16 17 18 19 20 21 22 23 24 25 26 27 28 29 30 31 32 33 34 35 36 37 38 39 40 41 42 43 44 45 46 47 48 49 50
000
ASUS43 KLMK 191610
RWRKY
KENTUCKY REGIONAL WEATHER ROUNDUP
NATIONAL WEATHER SERVICE LOUISVILLE KY
1200 PM EDT SUN APR 19 2015

NOTE "FAIR" INDICATES FEW OR NO CLOUDS BELOW 12,000 FEET
WITH NO SIGNIFICANT WEATHER AND/OR OBSTRUCTIONS TO VISIBILITY.

KYZ001>023-026-027-061>063-070>075-191700-
WESTERN AND SOUTH CENTRAL KENTUCKY

CITY           SKY/WX    TMP DP  RH WIND       PRES   REMARKS
PADUCAH        CLOUDY    66  63  90 CALM      29.58F FOG
HENDERSON      CLOUDY    64  61  88 CALM      29.60F
OWENSBORO      LGT RAIN  65  64  96 SE8       29.62F FOG
HOPKINSVILLE   CLOUDY    69  65  86 SW12      29.62F
BOWLING GREEN  RAIN      67  64  90 S12G20    29.60F FOG
GLASGOW        HVY RAIN  65  65  98 SE12      29.62F
$$

KYZ024-025-028>034-038-045-046-053-191700-
NORTH CENTRAL KENTUCKY

CITY           SKY/WX    TMP DP  RH WIND       PRES   REMARKS
LOUISVILLE/SDF LGT RAIN  65  61  87 E8        29.66F
LOUISVILLE/LOU LGT RAIN  65  61  87 E7        29.66F
FORT KNOX      LGT RAIN  64  63  94 E9        29.61F FOG
$$

KYZ035>037-039>044-047>052-055>060-089>105-191700-
NORTHEAST KENTUCKY

CITY           SKY/WX    TMP DP  RH WIND       PRES   REMARKS
LEXINGTON      LGT RAIN  64  60  87 SE15G25   29.71F
COVINGTON      LGT RAIN  60  57  89 E13       29.75F FOG
FRANKFORT      CLOUDY    63  60  90 E14       29.67F
$$

KYZ054-064>069-076>088-106>120-191700-
SOUTHEAST KENTUCKY

CITY           SKY/WX    TMP DP  RH WIND       PRES   REMARKS
JACKSON        LGT RAIN  62  59  90 VRB5      29.80F FOG
LONDON         LGT RAIN  65  59  81 E8        29.74F
SOMERSET       CLOUDY    63  63 100 SE14G21   29.72F
MIDDLESBORO    RAIN      64  63  99 CALM      29.78F
MONTICELLO     CLOUDY    66  64  94 SE10      29.72F FOG
$$




USA.gov is the U.S. government's official web portal to all federal, state and local government web resources and services.